Regional Weather Roundup
Issued by NWS

Home | Current Version | Previous Version | Text Only | Print | Product List | Glossary On
Versions: 1 2 3 4 5 6 7 8 9 10 11 12 13 14 15 16 17 18 19 20 21 22 23 24 25 26 27
000
ASUS46 KPQR 231310
RWROR

OREGON REGIONAL WEATHER ROUNDUP
NATIONAL WEATHER SERVICE PORTLAND OR
600 AM PDT SAT JUL 23 2016

NOTE: "FAIR" INDICATES FEW OR NO CLOUDS BELOW 12,000 FEET WITH
NO SIGNIFICANT WEATHER AND/OR OBSTRUCTIONS TO VISIBILITY.

ORZ001>013-231400-
NORTHWEST OREGON


CITY           SKY/WX    TMP DP  RH WIND       PRES   REMARKS
ASTORIA        CLOUDY    59  57  93 CALM      30.27R
NEWPORT        CLOUDY    54  52  94 CALM      30.29R
PORTLAND       CLOUDY    61  54  77 N3        30.26S
VANCOUVER WA   CLOUDY    60  53  77 CALM      30.26R
SCAPPOOSE      CLEAR     54  51  90 W5        30.25S
HILLSBORO      CLOUDY    57  52  83 NW3       30.26S
AURORA         CLOUDY    58  52  80 N3        30.27R
MCMINNVILLE    CLOUDY    58  53  84 CALM      30.27R
SALEM          CLOUDY    58  52  80 N5        30.25S
CORVALLIS        N/A     59  52  77 N5        30.26S
EUGENE         PTCLDY    52  49  89 N8        30.25S
$$

ORZ021-028-231400-
SOUTHWEST OREGON


CITY           SKY/WX    TMP DP  RH WIND       PRES   REMARKS
NORTH BEND     CLEAR     54  54 100 NE3       30.24S
BROOKINGS      CLEAR     51  50  96 CALM      30.13S
ROSEBURG       CLEAR     56  52  86 CALM      30.22S
SEXTON SUMMIT  CLEAR     55  41  59 NE6       30.23S
MEDFORD        CLEAR     55  45  68 CALM      30.19S
$$

ORZ014>016-041-231400-
COLUMBIA GORGE


CITY           SKY/WX    TMP DP  RH WIND       PRES   REMARKS
TROUTDALE      CLOUDY    59  55  87 CALM      30.25S
THE DALLES     CLEAR     61  50  67 NW8       30.18S
$$

ORZ029>031-041-044-049-050-061>064-502-503-505>511-231400-
EASTERN OREGON


CITY           SKY/WX    TMP DP  RH WIND       PRES   REMARKS
REDMOND        CLEAR     43  38  82 CALM      30.24R
BEND           CLEAR     50  41  71 SW8       30.24R
PRINEVILLE     CLEAR     43  41  93 CALM      30.25R
KLAMATH FALLS  CLEAR     42  40  92 SE3       30.24S
LAKEVIEW       CLEAR    N/A N/A N/A NW9       30.27R
HERMISTON      PTCLDY    59  48  67 SW7       30.17R
PENDLETON      MOCLDY    57  46  66 CALM      30.20R
JOHN DAY       CLEAR     51  44  77 CALM      30.25R
MEACHAM        PTCLDY    39  35  86 CALM      30.24R
LA GRANDE      PTCLDY    52  37  58 N8        30.21R
BAKER CITY     CLEAR     47  41  80 S6        30.22R
BURNS          PTCLDY    45  37  73 W9        30.25R
ROME             N/A     48  29  47 E5        30.22R
ONTARIO        CLEAR     62  42  47 VRB3      30.15R
$$




USA.gov is the U.S. government's official web portal to all federal, state and local government web resources and services.